This demonstration page uses our WeatherBlox Daily Observations layout. Learn more.

Hourly Observations for April 17, 2017

Temp ( °F °C ) Dew Point ( °F °C ) Humidity (%) Winds ( mph kmh ) Pressure ( in mb ) Visibility ( mi km ) Precip ( " mm )
12:15 am 00:15 Clear 49 9.3 42 5.7 78 78 SSW 5 7 30.15 1021 10 16.0934 0 0
12:35 am 00:35 Clear 49 9.2 43 6 81 81 SSW 7 11 30.15 1021 10 16.0934 0 0
12:55 am 00:55 Clear 48 9 42 5.7 80 80 SSW 8 13 30.15 1021 10 16.0934 0 0
1:15 am 01:15 Clear 49 9.2 43 6.1 81 81 SW 8 13 30.15 1021 10 16.0934 0 0
1:35 am 01:35 Clear 49 9.5 44 6.5 82 82 S 8 13 30.15 1021 10 16.0934 0 0
1:55 am 01:55 Clear 48 9.1 44 6.5 84 84 SSE 9 15 30.12 1020 10 16.0934 0 0
2:15 am 02:15 Mostly Cloudy 50 9.9 44 6.8 81 81 S 5 7 30.15 1021 10 16.0934 0 0
2:35 am 02:35 Mostly Cloudy 50 10 44 6.7 80 80 SSW 5 7 30.15 1021 10 16.0934 0 0
2:55 am 02:55 Clear 49 9.3 43 6.2 81 81 S 6 9 30.15 1021 10 16.0934 0 0
3:15 am 03:15 Clear 47 8.6 44 6.4 86 86 S 5 7 30.15 1021 10 16.0934 0 0
3:35 am 03:35 Clear 47 8.6 44 6.4 86 86 SSW 7 11 30.15 1021 10 16.0934 0 0
3:55 am 03:55 Clear 47 8.6 44 6.5 87 87 Calm 30.15 1021 10 16.0934 0 0
4:15 am 04:15 Clear 46 8 43 6.1 88 88 N 3 6 30.15 1021 10 16.0934 0 0
4:35 am 04:35 Partly Cloudy 44 6.7 41 5.2 90 90 NNE 7 11 30.18 1022 10 16.0934 0 0
4:55 am 04:55 Mostly Cloudy 44 6.9 42 5.7 92 92 NNE 3 6 30.18 1022 10 16.0934 0 0
5:15 am 05:15 Cloudy 46 7.7 44 6.5 92 92 NE 3 6 30.15 1021 10 16.0934 0 0
5:35 am 05:35 Mostly Cloudy 45 7 42 5.7 92 92 NE 6 9 30.18 1022 10 16.0934 0 0
5:55 am 05:55 Partly Cloudy 45 7 43 5.9 93 93 NNE 7 11 30.18 1022 10 16.0934 0 0
6:15 am 06:15 Partly Cloudy 44 6.9 42 5.7 92 92 NNE 6 9 30.18 1022 10 16.0934 0 0
6:35 am 06:35 Mostly Cloudy 44 6.9 42 5.7 92 92 NNE 5 7 30.18 1022 10 16.0934 0 0
6:55 am 06:55 Cloudy 47 8.3 45 7.3 93 93 Calm 30.15 1021 10 16.0934 0 0
7:15 am 07:15 Cloudy 49 9.3 46 7.8 90 90 Calm 30.15 1021 10 16.0934 0 0
7:35 am 07:35 Cloudy 48 9 46 7.5 90 90 Calm 30.15 1021 10 16.0934 0 0
7:55 am 07:55 Cloudy 49 9.2 46 7.5 89 89 Calm 30.15 1021 10 16.0934 0 0
8:15 am 08:15 Cloudy 49 9.6 46 7.8 89 89 Calm 30.15 1021 10 16.0934 0 0
8:35 am 08:35 Cloudy 50 10.1 46 8 87 87 Calm 30.18 1022 10 16.0934 0 0
8:55 am 08:55 Cloudy 52 11.1 48 8.7 85 85 Calm 30.12 1020 10 16.0934 0 0
9:15 am 09:15 Cloudy 54 12.4 49 9.2 81 81 SE 3 6 30.12 1020 10 16.0934 0 0
9:35 am 09:35 Cloudy 56 13.3 47 8.1 71 71 SSE 3 6 30.12 1020 10 16.0934 0 0
9:55 am 09:55 Mostly Cloudy 58 14.5 46 7.5 63 63 SE 3 6 30.09 1019 10 16.0934 0 0
10:15 am 10:15 Partly Cloudy 59 15.2 44 6.6 57 57 SSE 3 6 30.09 1019 10 16.0934 0 0
10:35 am 10:35 Sunny 61 16 44 6.7 54 54 SSE 6 9 30.09 1019 10 16.0934 0 0
10:55 am 10:55 Sunny 62 16.8 44 6.8 52 52 S 5 7 30.09 1019 10 16.0934 0 0
11:15 am 11:15 Sunny 64 17.9 46 7.5 51 51 SSE 8 13 30.06 1018 10 16.0934 0 0
11:35 am 11:35 Partly Cloudy 65 18.5 46 7.9 50 50 SSW 8 13 30.06 1018 10 16.0934 0 0
11:55 am 11:55 Partly Cloudy 65 18.2 45 7.3 49 49 S 7 11 30.06 1018 10 16.0934 0 0
12:15 pm 12:15 Partly Cloudy 66 19.1 47 8.2 49 49 S 15 24 30.06 1018 10 16.0934 0 0
12:35 pm 12:35 Partly Cloudy 66 18.8 46 7.8 49 49 S 14 22 30.06 1018 10 16.0934 0 0
12:55 pm 12:55 Mostly Cloudy 66 19.1 47 8.1 49 49 SSE 10 17 30.03 1017 10 16.0934 0 0
1:15 pm 13:15 Cloudy 66 19 46 7.8 48 48 S 14 22 30.03 1017 10 16.0934 0 0
1:35 pm 13:35 Cloudy 67 19.4 47 8.3 49 49 S 16 26 30.03 1017 10 16.0934 0 0
1:55 pm 13:55 Mostly Cloudy 68 20.1 47 8.3 47 47 S 14 22 30.03 1017 10 16.0934 0 0
2:10 pm 14:10 Mostly Cloudy 69 20.3 47 8.1 46 46 SSE 13 20 30.03 1017 10 16.0934 0 0
2:35 pm 14:35 Mostly Cloudy 68 20.1 47 8.3 47 47 S 10 17 29.97 1015 10 16.0934 0 0
2:55 pm 14:55 Cloudy 70 20.9 46 7.8 43 43 SSE 12 19 29.97 1015 10 16.0934 0 0
3:15 pm 15:15 Cloudy 69 20.3 46 7.8 45 45 S 16 26 29.97 1015 10 16.0934 0 0
3:35 pm 15:35 Cloudy 69 20.5 47 8.1 45 45 SSE 21 33 29.94 1014 10 16.0934 0 0
3:55 pm 15:55 Cloudy 69 20.6 47 8.3 45 45 SSE 17 28 29.94 1014 10 16.0934 0 0
4:15 pm 16:15 Cloudy 70 21 47 8.4 45 45 SSE 21 33 29.91 1013 10 16.0934 0 0
4:35 pm 16:35 Mostly Cloudy 70 21.3 47 8.3 43 43 S 18 30 29.91 1013 10 16.0934 0 0
4:55 pm 16:55 Mostly Cloudy 71 21.5 47 8.1 42 42 S 18 30 29.91 1013 10 16.0934 0 0
5:15 pm 17:15 Cloudy 69 20.6 46 8 44 44 S 17 28 29.91 1013 10 16.0934 0 0
5:35 pm 17:35 Cloudy 69 20.4 47 8.3 46 46 SSE 21 33 29.91 1013 10 16.0934 0 0
5:55 pm 17:55 Cloudy 69 20.5 47 8.2 45 45 S 23 37 29.91 1013 10 16.0934 0 0
6:15 pm 18:15 Cloudy 68 20.1 47 8.4 47 47 S 18 30 29.88 1012 10 16.0934 0 0
6:35 pm 18:35 Partly Cloudy 68 19.8 47 8.6 49 49 SSE 18 30 29.91 1013 10 16.0934 0 0
6:55 pm 18:55 Mostly Cloudy 68 20 48 9 49 49 SSE 18 30 29.91 1013 10 16.0934 0 0
7:15 pm 19:15 Mostly Cloudy 67 19.7 49 9.7 53 53 S 20 31 29.88 1012 10 16.0934 0 0
7:35 pm 19:35 Mostly Cloudy 67 19.4 50 10 55 55 SSE 14 22 29.88 1012 10 16.0934 0 0
7:55 pm 19:55 Mostly Cloudy 66 19 50 10.2 57 57 SSE 13 20 29.91 1013 10 16.0934 0 0
8:15 pm 20:15 Partly Cloudy 65 18.2 50 10.2 60 60 SSE 10 17 29.91 1013 10 16.0934 0 0
8:35 pm 20:35 Partly Cloudy 64 17.5 51 10.3 63 63 SSE 12 19 29.91 1013 10 16.0934 0 0
8:55 pm 20:55 Partly Cloudy 63 17.2 51 10.5 65 65 SSE 13 20 29.88 1012 10 16.0934 0 0
9:15 pm 21:15 Clear 63 17.2 51 10.5 65 65 SSE 13 20 29.91 1013 10 16.0934 0 0
9:35 pm 21:35 Clear 62 16.6 51 10.5 67 67 SSE 14 22 29.88 1012 10 16.0934 0 0
9:55 pm 21:55 Clear 62 16.5 51 10.5 68 68 SSE 13 20 29.88 1012 10 16.0934 0 0
10:15 pm 22:15 Clear 61 16 51 10.5 70 70 SSE 10 17 29.88 1012 10 16.0934 0 0
10:35 pm 22:35 Clear 60 15.5 51 10.3 71 71 SSE 10 17 29.94 1014 10 16.0934 0 0
10:55 pm 22:55 Clear 59 15.2 51 10.3 73 73 SSE 13 20 29.94 1014 10 16.0934 0 0
11:15 pm 23:15 Clear 60 15.8 51 10.5 71 71 S 14 22 29.91 1013 10 16.0934 0 0
11:35 pm 23:35 Partly Cloudy 60 15.7 51 10.6 72 72 S 15 24 29.91 1013 10 16.0934 0 0
11:55 pm 23:55 Mostly Cloudy 60 15.5 52 11 75 75 S 15 24 29.88 1012 10 16.0934 0 0

Powered by AerisWeather